User: anonymous   Login
Location: Unspecified
(0.0000°N, 0.0000°E)
Time: 11:20:15
(UTC+02:00)
Language:

DELTA 2 R/B (1) - Orbit

View from above orbital plane
View from above orbital plane
View from above satellite
View from above satellite

Ground track
Ground track

The orbit data is extracted from the following two-line orbital elements,

1 27665U 03005C   17265.67893451 +.00000045 +00000-0 +51453-4 0  9999
2 27665 039.5769 333.8531 0008187 188.1584 307.9907 14.28453748764785
Epoch (UTC): 22 September 2017 16:17:39
Eccentricity: 0.0008187
inclination: 39.5769°
perigee height: 791 km
apogee height: 803 km
right ascension of ascending node: 333.8531°
argument of perigee: 188.1584°
revolutions per day: 14.28453748
mean anomaly at epoch: 307.9907°
orbit number at epoch: 76478

The dashed part of the orbit path shows where the satellite is in the earth's shadow,  

DLR